Location: Melbourne
(37.8170°S, 144.9670°E)
Time: 21:26:49
(UTC+11:00)

Explorer 11/Cluster Stage 4 - Visible Passes

Search period start: 23 January 2017 00:00
Search period end: 02 February 2017 00:00
Orbit: 467 x 1264 km, 28.8° (Epoch: 22 January)

Date Brightness Start Highest point End Pass type
(mag) Time Alt. Az. Time Alt. Az. Time Alt. Az.
29 Jan 8.9 04:09:51 12° NNE 04:09:51 12° NNE 04:11:06 10° NE visible
29 Jan 8.0 05:52:45 10° NW 05:57:14 23° N 06:01:02 10° ENE visible
30 Jan 8.8 04:00:18 14° NNE 04:00:18 14° NNE 04:02:15 10° NE visible
30 Jan 7.8 05:42:29 11° NW 05:47:17 26° N 05:51:28 10° ENE visible
31 Jan 8.7 03:50:44 16° NE 03:50:44 16° NE 03:53:00 10° ENE visible
31 Jan 7.8 05:32:55 14° NW 05:37:20 29° N 05:41:49 10° ENE visible
01 Feb 8.7 03:41:10 18° NE 03:41:10 18° NE 03:43:33 10° ENE visible
01 Feb 7.7 05:23:21 17° NW 05:27:21 32° N 05:32:08 10° ENE visible
